Weather History for Augusta Bush, GA

Change the Weather History Date:

Monday, February 25, 2013

  Actual Average Record
Temperature  
Mean Temperature 45 °F 51 °F  
Max Temperature 50 °F 65 °F 84 °F (1890)
Min Temperature 40 °F 38 °F 14 °F (1967)
Degree Days  
Heating Degree Days 20 14  
Month to date heating degree days 436 406  
Since 1 July heating degree days 1761 1991  
Cooling Degree Days 0 0  
Month to date cooling degree days 0 0  
Year to date cooling degree days 15 1  
Moisture  
Dew Point 36 °F    
Average Humidity 73    
Maximum Humidity 100    
Minimum Humidity 46    
Precipitation  
Precipitation 0.01 in 0.15 in 2.26 in (1919)
Month to date precipitation 8.31 3.49  
Year to date precipitation 8.91 7.40  
Sea Level Pressure  
Sea Level Pressure 30.01 in    
Wind  
Wind Speed 7 mph (ENE)    
Max Wind Speed 23 mph    
Max Gust Speed 29 mph    
Visibility 10 miles    
Events Rain    
T = Trace of Precipitation, MM = Missing Value Source: NWS Daily Summary

Daily Weather History Graph

Daily Weather History Graph

Search for Another Location

Airport:

Trip Planner

Search our weather history database for the weather conditions in past years. The results will help you decide how hot, cold, wet, or windy it might be!

Date:

Astronomy

Feb. 25, 2013 Rise Set
Actual Time 7:00 AM EST 6:21 PM EST
Civil Twilight 6:35 AM EST 6:46 PM EST
Nautical Twilight 6:06 AM EST 7:15 PM EST
Astronomical Twilight 5:38 AM EST 7:44 PM EST
Moon 6:30 PM EST (2/25) 6:31 AM EST (2/25)
Length of Visible Light 12h 11m
Length of Day
11h 21m
Full, 100% of the Moon is Illuminated
Feb 25
Full
Feb 25
Full
Mar 4
Last Quarter
Mar 11
New
Mar 19
First Quarter

Hourly Weather History & Observations

Time (EST) Temp. Windchill Dew Point Humidity Pressure Visibility Wind Dir Wind Speed Gust Speed Precip Events Conditions
12:53 AM 42.1 °F - 39.9 °F 92% 29.96 in 10.0 mi Calm Calm - N/A   Clear
1:53 AM 42.1 °F - 39.9 °F 92% 29.97 in 10.0 mi Calm Calm - N/A   Clear
2:53 AM 41.0 °F - 39.9 °F 96% 29.97 in 10.0 mi Calm Calm - N/A   Clear
3:53 AM 43.0 °F 40.3 °F 39.9 °F 89% 29.96 in 10.0 mi North 4.6 mph - N/A   Clear
4:53 AM 45.0 °F 41.8 °F 42.1 °F 90% 29.96 in 10.0 mi NNW 5.8 mph - N/A   Clear
5:53 AM 46.0 °F - 41.0 °F 83% 30.01 in 10.0 mi Calm Calm - N/A   Scattered Clouds
6:53 AM 46.4 °F 42.9 °F 37.4 °F 71% 30.02 in 10.0 mi East 6.9 mph - N/A   Partly Cloudy
7:53 AM 48.0 °F - 34.0 °F 58% 30.03 in 10.0 mi East 8.1 mph - N/A   Scattered Clouds
8:53 AM 48.9 °F - 33.1 °F 54% 30.08 in 10.0 mi ENE 4.6 mph - N/A   Mostly Cloudy
9:53 AM 48.9 °F - 30.0 °F 48% 30.07 in 10.0 mi East 5.8 mph - N/A   Mostly Cloudy
10:53 AM 50.0 °F - 30.0 °F 46% 30.09 in 10.0 mi East 4.6 mph - N/A   Mostly Cloudy
11:53 AM 48.9 °F - 36.0 °F 61% 30.06 in 10.0 mi East 5.8 mph - 0.00 in Rain Light Rain
12:40 PM 48.2 °F - 35.6 °F 62% 30.05 in 10.0 mi East 6.9 mph - 0.00 in Rain Light Rain
12:53 PM 48.2 °F - 35.6 °F 62% 30.05 in 10.0 mi ESE 5.8 mph - N/A Rain Light Rain
12:55 PM 48.2 °F - 37.4 °F 66% 30.05 in 10.0 mi ESE 6.9 mph - 0.00 in Rain Light Rain
1:53 PM 46.9 °F - 37.9 °F 71% 30.03 in 10.0 mi ENE 9.2 mph - 0.00 in Rain Light Rain
2:53 PM 46.0 °F 39.6 °F 39.0 °F 76% 29.96 in 10.0 mi ESE 15.0 mph 19.6 mph 0.00 in Rain Light Rain
3:18 PM 46.4 °F 42.4 °F 39.2 °F 76% 29.98 in 10.0 mi East 8.1 mph 23.0 mph 0.00 in Rain Light Rain
3:53 PM 46.9 °F - 39.0 °F 74% 30.03 in 10.0 mi NNE 5.8 mph - 0.00 in   Overcast
4:53 PM 46.0 °F 39.3 °F 35.1 °F 66% 30.03 in 10.0 mi NNE 16.1 mph 23.0 mph N/A   Overcast
5:53 PM 45.0 °F 39.7 °F 34.0 °F 65% 30.01 in 10.0 mi ENE 10.4 mph - N/A   Overcast
6:53 PM 44.1 °F 39.0 °F 33.1 °F 65% 30.01 in 10.0 mi East 9.2 mph - N/A   Overcast
7:53 PM 44.1 °F 38.6 °F 34.0 °F 68% 30.01 in 10.0 mi ENE 10.4 mph - N/A   Overcast
8:53 PM 43.0 °F 36.8 °F 34.0 °F 71% 30.01 in 10.0 mi ENE 11.5 mph - N/A   Overcast
9:53 PM 43.0 °F 37.2 °F 34.0 °F 71% 30.00 in 10.0 mi ENE 10.4 mph - N/A   Overcast
10:53 PM 42.1 °F 37.7 °F 35.1 °F 76% 29.98 in 10.0 mi East 6.9 mph - N/A   Overcast
11:53 PM 42.1 °F 36.1 °F 37.9 °F 85% 29.96 in 5.0 mi ENE 10.4 mph - 0.01 in Rain Light Rain